Tiempo atmosférico en la estación meteorológica de Vitigudino, Salamanca (769 m.)



Fecha
DESCASC
Temp. máxima en grados centígrados (hora)
DESCASC
Temp. mínima en grados centígrados (hora)
DESCASC
Temp. media en grados centígrados
DESCASC
Racha de viento máxima en m/sg (hora)
DESCASC
Velocidad máxima media en intervalos de 10 minutos(hora)
DESCASC
Precipitaciones diarias en mm
DESCASC
Precipitaciones de 00:00 a 06:00 en mm
DESCASC
Precipitaciones de 06:00 a 12:00 en mm
DESCASC
Precipitaciones de 12:00 a 18:00 en mm
DESCASC
Precipitaciones de 18:00 a 24:00 en mm
DESCASC
24-12-2020 8.3 (13:30) -0.3 (00:00) 4 9.17 (13:00) 5.83 (13:00) 0 0 0 0 0
19-01-2021 10.2 (13:20) -1.3 (-00:0) 4.4 14.72 (21:00) 8.33 (14:10) 0 0 0 0 0
18-01-2021 16.9 (16:00) -1.7 (-00:0) 7.6 4.72 (16:20) 3.33 (05:50) 0 0 0 0 0
17-01-2021 13.2 (15:10) -6.5 (-00:0) 3.3 3.61 (20:50) 2.78 (20:50) 0 0 0 0 0
16-01-2021 13 (15:50) -5.2 (-00:0) 3.9 5.83 (06:10) 3.89 (06:00) 0 0 0 0 0
15-01-2021 9.6 (15:40) -3.7 (-00:0) 3 6.94 (15:30) 4.72 (15:20) 0 0 0 0 0
14-01-2021 11.8 (15:10) -5.9 (07:50) 3 4.72 (16:10) 3.06 (16:10) 0 0 0 0 0
13-01-2021 11.6 (15:00) -5.8 (-00:0) 2.9 3.89 (12:10) 3.06 (18:00) 0 0 0 0 0
12-01-2021 10.7 (16:40) -6.6 (-00:0) 2 5.28 (14:00) 3.61 (00:50) 0 0 0 0 0
11-01-2021 6 (15:40) -4.8 (-00:0) 0.6 10.83 (11:50) 6.94 (11:50) 0 0 0 0 0
10-01-2021 5.6 (14:20) -2.3 (23:50) 1.6 15.83 (15:10) 9.44 (15:10) 0 0 0 0 0
08-01-2021 1.5 (15:30) -5.4 (-00:0) -2 12.78 (20:50) 8.89 (14:20) 0 0 0 0 0
07-01-2021 5.8 (15:40) -5.2 (-00:0) 0.3 8.33 (16:40) 5.83 (13:20) 0 0 0 0 0
06-01-2021 7.1 (14:10) -5.4 (-00:0) 0.8 8.33 (16:30) 4.72 (17:10) 0 0 0 0 0
05-01-2021 7.7 (15:30) -6.3 (-00:0) 0.7 3.89 (11:50) 2.5 (11:30) 0 0 0 0 0
04-01-2021 8.1 (15:10) -4.2 (-00:0) 2 7.5 (13:10) 5 (15:00) 0 0 0 0 0
03-01-2021 8.6 (14:50) -5.7 (-00:0) 1.5 10.83 (14:10) 7.78 (14:20) 0 0 0 0 0
02-01-2021 6.5 (16:40) -4.1 (-00:0) 1.2 6.11 (14:50) 4.44 (11:30) 0 0 0 0 0
01-01-2021 7.6 (14:10) -2.8 (-00:0) 2.4 11.11 (14:50) 7.78 (14:40) 0 0 0 0 0
30-12-2020 8.9 (14:50) -2.9 (-00:0) 3 8.61 (12:40) 6.39 (12:40) 0 0 0 0 0
27-12-2020 6.4 (23:50) -5.4 (-00:0) 0.5 21.67 (23:10) 14.72 (23:40) 0 0 0 0 0
26-12-2020 8 (15:30) -4.8 (-00:0) 1.6 9.17 (11:30) 6.39 (15:40) 0 0 0 0 0
25-12-2020 7.8 (14:50) -2 (-00:0) 2.9 12.78 (16:10) 8.33 (15:20) 0 0 0 0 0
31-12-2020 9.8 (15:00) 0 (00:00) 4.9 12.78 (14:30) 8.61 (14:40) 0.2 0 0 0.2 0
29-12-2020 8.2 (14:30) -1.3 (-00:0) 3.4 11.39 (16:00) 7.5 (13:50) 0.8 0.6 0.2 0 0
09-01-2021 -0.3 (12:50) -2.1 (-00:0) -1.2 18.06 (12:20) 11.94 (12:10) 1.4 0 0 0.6 0.8
23-12-2020 10 (14:10) 4.9 (23:59) 7.5 8.61 (12:00) 5.83 (11:00) 2.4 0 0 2.2 0.2
28-12-2020 10 (13:10) 0.5 (00:00) 5.3 23.33 (00:30) 15.83 (00:30) 2.6 2.6 0 0 0
21-01-2021 10.2 (16:30) 6.7 (00:00) 8.4 18.06 (14:00) 11.39 (13:40) 4.4 0 1 2.8 0.6
20-01-2021 9.5 (12:40) 5.8 (00:00) 7.7 18.33 (05:40) 10 (18:10) 5.8 0 0.2 2.8 2.8

Gráficas

Temp. máximas Temp. mínimas Temp. medias Precipitaciones Rachas de viento máximas Velocidades máximas media en intervalos de 10 minutos

Datos horarios

Fecha y hora oficial Temperatura (ºC) Velocidad del viento (km/h) Dirección del viento Racha (km/h) Dirección de racha Precipitación (mm) Presión (hPa) Tendencia (hPa) Humedad (%)
2021-01-21 23:00:00 8.4 27 Sudoeste 41 Sudoeste 0 919.9 -- 89
2021-01-21 22:00:00 8.5 24 Sudoeste 38 Sudoeste 0 920.6 -- 89
2021-01-21 21:00:00 8.7 21 Sudoeste 49 Sudoeste 0 921.3 -- 92
2021-01-21 20:00:00 8.8 27 Sudoeste 44 Sudoeste 0 921.7 -- 93
2021-01-21 19:00:00 9.2 30 Sudoeste 49 Sudoeste 0.4 921.8 -- 93
2021-01-21 18:00:00 9.9 29 Sudoeste 54 Sudoeste 1.4 921.8 -- 94
2021-01-21 17:00:00 10.2 31 Sudoeste 62 Sudoeste 0 921.5 -- 93
2021-01-21 16:00:00 9.6 29 Sudoeste 50 Sudoeste 0 921.3 -- 91
2021-01-21 15:00:00 9.3 36 Sudoeste 65 Sudoeste 0 921 -- 89
2021-01-21 14:00:00 9 40 Sudoeste 65 Sudoeste 0.2 921.5 -- 92
2021-01-21 13:00:00 8.4 30 Sudoeste 51 Sudoeste 1.2 922.5 -- 94
2021-01-21 12:00:00 7.7 31 Sudoeste -- -- -- 923.2 -- 93
2021-01-21 11:00:00 7.9 22 Sudoeste 42 Sudoeste 0.2 923 -- 91
2021-01-21 10:00:00 7.4 31 Sudoeste 46 Sudoeste 0 923 -- 94
2021-01-21 09:00:00 6.8 25 Sudoeste 36 Sudoeste 0 923 -- 94
2021-01-21 08:00:00 6.7 23 Sudoeste 33 Sudoeste 0.2 923.5 -- 94
2021-01-21 07:00:00 6.9 20 Sudoeste 36 Sudoeste 0 923.4 -- 94
2021-01-21 06:00:00 7.1 20 Sudoeste 31 Sudoeste 0 923.1 -- 93
2021-01-21 05:00:00 6.9 18 Sudoeste 30 Sudoeste 0 923 -- 93
2021-01-21 04:00:00 7 19 Sudoeste 35 Sudoeste 0 922.5 -- 92
2021-01-21 03:00:00 7.2 23 Sudoeste 39 Sudoeste 0 921.9 -- 92
2021-01-21 02:00:00 7.5 23 Sudoeste 36 Sudoeste 0 921.7 -- 93
2021-01-21 01:00:00 7.4 21 Sudoeste 32 Sudoeste 0 921.3 -- 93
2021-01-21 00:00:00 7.6 19 Sudoeste 38 Sudoeste 0 920.8 -- 93
2021-01-20 23:00:00 7.5 22 Sudoeste 38 Sudoeste 0 920.2 -- 93
2021-01-20 22:00:00 7.6 24 Sudoeste 39 Sudoeste 0 919.3 -- 93
2021-01-20 21:00:00 7.5 28 Sudoeste 46 Sudoeste 0 918.5 -- 93
2021-01-20 20:00:00 7.4 28 Sudoeste 41 Sudoeste 0.2 918 -- 93
2021-01-20 19:00:00 7.7 28 Sudoeste 54 Sudoeste 2.6 917.5 -- 93
2021-01-20 18:00:00 8.1 33 Sudoeste 49 Sudoeste 0.8 916.7 -- 92
2021-01-20 17:00:00 8.1 36 Sudoeste 57 Sudoeste 0.4 916.2 -- 90
2021-01-20 16:00:00 8.4 28 Sudoeste 51 Sudoeste 0.6 915.9 -- 90
2021-01-20 15:00:00 8.8 31 Sudoeste 48 Sur 0.2 915.7 -- 91
2021-01-20 14:00:00 8.1 24 Sudoeste 64 Sudoeste 0.8 916.3 -- 91
2021-01-20 13:00:00 9.2 35 Sudoeste 57 Sudoeste 0 916.3 -- 79
2021-01-20 12:00:00 8.3 33 Sudoeste 60 Sudoeste 0 917.2 -- 81
2021-01-20 11:00:00 7.9 31 Sudoeste 51 Sur 0.2 917.3 -- 80
2021-01-20 10:00:00 6.6 23 Sur 50 Sur 0 917.2 -- 83
2021-01-20 09:00:00 5.9 20 Sur 46 Sudoeste 0 917.8 -- 82
2021-01-20 08:00:00 6 18 Sur 48 Sur 0 918.4 -- 78
2021-01-20 07:00:00 6.2 26 Sur 59 Sur 0 918.2 -- 79
2021-01-20 06:00:00 6.3 26 Sur 66 Sur 0 918.9 -- 80
2021-01-20 05:00:00 6.2 22 Sur 50 Sur 0 919.4 -- 83
2021-01-20 04:00:00 6.3 21 Sur 43 Sur 0 920.9 -- 76
2021-01-20 03:00:00 6.4 26 Sur 51 Sudoeste 0 922.3 -- 75
2021-01-20 02:00:00 6.3 26 Sudoeste 49 Sur 0 923.1 -- 75
2021-01-20 01:00:00 6.4 23 Sur 48 Sur 0 924 -- 75
2021-01-20 00:00:00 6.4 27 Sudoeste 45 Sur 0 925.4 -- 74
2021-01-19 23:00:00 6.2 24 Sudoeste 50 Sudoeste 0 926.1 -- 77
2021-01-19 22:00:00 6.2 26 Sudoeste 45 Sudoeste 0 926.7 -- 77
2021-01-19 21:00:00 6.1 26 Sudoeste 53 Sudoeste 0 927.5 -- 76
2021-01-19 20:00:00 5.7 17 Sudoeste 44 Sudoeste 0 927.8 -- 76
2021-01-19 19:00:00 5.2 27 Sudoeste 47 Sudoeste 0 928.6 -- 78
2021-01-19 18:00:00 6.4 26 Sudoeste 53 Sudoeste 0 929 -- 70
2021-01-19 17:00:00 7.9 20 Sudoeste 35 Sudoeste 0 929.3 -- 60
2021-01-19 16:00:00 8.5 18 Sur -- -- 0 929.5 -- 57
2021-01-19 15:00:00 9 15 Sur 44 Sudoeste 0 930 -- 55
2021-01-19 14:00:00 9.9 25 Sudoeste 42 Sudoeste 0 931.1 -- 49
2021-01-19 13:00:00 10.1 21 Sudoeste 36 Sur 0 932 -- 49
2021-01-19 12:00:00 7.4 18 Sudoeste 30 Sudoeste 0 932.7 -- 65
2021-01-19 11:00:00 5.9 17 Sudoeste 24 Sudoeste 0 933 -- 69
2021-01-19 10:00:00 2.3 5 Sur 12 Sur 0 932.9 -- 82
2021-01-19 09:00:00 0.3 5 Sur 15 Sur 0 932.8 -- 83
2021-01-19 08:00:00 0.9 9 Sur 17 Sur 0 933.1 -- 83
2021-01-19 07:00:00 0.3 6 Sur 11 Sur 0 933.4 -- 82
2021-01-19 06:00:00 -0.2 6 Sur 13 Sur 0 933.7 -- 83
2021-01-19 05:00:00 0.4 7 Sur 11 Sur 0 934.1 -- 83
2021-01-19 04:00:00 0.1 8 Sur 12 Sur 0 934.6 -- 83
2021-01-19 03:00:00 -0.6 4 Sudeste 8 Sudeste 0 934.6 -- 83
2021-01-19 02:00:00 0.4 4 Sur 8 Sur 0 935.1 -- 80
2021-01-19 01:00:00 1.1 2 Sur 7 Sur 0 935.7 -- 81
2021-01-19 00:00:00 2.9 5 Sur 9 Sur 0 936 -- 78
2021-01-18 23:00:00 3 6 Sudeste 11 Sudeste 0 936 -- 83
2021-01-18 22:00:00 2.8 6 Sudeste 12 Sudeste 0 936 -- 83
2021-01-18 21:00:00 3.2 9 Este 12 Este 0 936 -- 79
2021-01-18 20:00:00 5.3 6 Este 10 Nordeste 0 936 -- 72
2021-01-18 19:00:00 7.1 8 Nordeste 9 Nordeste 0 935.8 -- 63
2021-01-18 18:00:00 11.1 5 Noroeste 13 Noroeste 0 935.6 -- 53
2021-01-18 17:00:00 14.2 7 Noroeste 17 Noroeste 0 935.3 -- 43
2021-01-18 16:00:00 16.3 8 Sudoeste 16 Oeste 0 935.4 -- 41
2021-01-18 15:00:00 16.3 3 Este 11 Sudeste 0 935.9 -- 38
2021-01-18 14:00:00 14.7 5 Sudeste 12 Este 0 936.4 -- 41
2021-01-18 13:00:00 13.1 5 Nordeste 12 Nordeste 0 937.4 -- 43
2021-01-18 12:00:00 11.2 5 Nordeste 8 Nordeste 0 938.3 -- 46
2021-01-18 11:00:00 7.6 7 Este 12 Este 0 938.1 -- 51
2021-01-18 10:00:00 2.1 6 Nordeste -- -- 0 937.8 -- 61
2021-01-18 09:00:00 -1.2 6 Este 15 Este 0 937.5 -- 71
2021-01-18 08:00:00 -1.7 9 Nordeste 14 Nordeste 0 937.7 -- 71
2021-01-18 07:00:00 -1.3 10 Nordeste 15 Nordeste 0 937.5 -- 66
2021-01-18 06:00:00 -0.8 11 Nordeste 16 Nordeste 0 937.2 -- 65
2021-01-18 05:00:00 -1.2 7 Este 10 Este 0 937.5 -- 68
2021-01-18 04:00:00 -0.3 9 Nordeste 13 Nordeste 0 937.8 -- 64
2021-01-18 03:00:00 0.2 3 Este 9 Este 0 937.7 -- 62
2021-01-18 02:00:00 0.3 7 Este 10 Nordeste 0 937.9 -- 59
2021-01-18 01:00:00 0.6 7 Nordeste 9 Nordeste 0 938.3 -- 60
2021-01-18 00:00:00 0.2 8 Nordeste 10 Nordeste 0 938.7 -- 66
2021-01-17 23:00:00 1 5 Este 8 Este 0 938.7 -- 69
2021-01-17 22:00:00 2.2 4 Este 10 Este 0 938.7 -- 67
2021-01-17 21:00:00 2.4 7 Este 13 Nordeste 0 938.9 -- 65
2021-01-17 20:00:00 3.3 7 Nordeste 10 Nordeste 0 939.2 -- 65
2021-01-17 19:00:00 6.1 4 Norte 7 Noroeste 0 938.9 -- 57
2021-01-17 18:00:00 10.3 3 Noroeste -- -- 0 938.6 -- 45
2021-01-17 17:00:00 11.7 4 Norte -- -- 0 938.5 -- 39
2021-01-17 16:00:00 11.4 4 Norte 13 Noroeste 0 938.5 -- 33
2021-01-17 15:00:00 13 6 Oeste 11 Noroeste 0 938.8 -- 38
2021-01-17 14:00:00 9.8 6 Norte 12 Norte 0 939.5 -- 43
2021-01-17 13:00:00 8.4 8 Noroeste 13 Noroeste 0 940.4 -- 53
2021-01-17 12:00:00 7.4 2 Sur 5 Nordeste 0 940.9 -- 52
2021-01-17 11:00:00 2.6 3 Sudoeste 5 Sudoeste 0 940.8 -- 66
2021-01-17 10:00:00 -2.9 3 Sudoeste 7 Norte 0 940.5 -- 92
2021-01-17 09:00:00 -6.4 2 Sur 5 Este 0 939.9 -- 87
2021-01-17 08:00:00 -6.4 5 Este 9 Nordeste 0 939.8 -- 86
2021-01-17 07:00:00 -6.1 5 Este 9 Norte 0 939.4 -- 85
2021-01-17 06:00:00 -5.5 6 Nordeste 8 Nordeste 0 939.2 -- 86
2021-01-17 05:00:00 -4.7 3 Nordeste 6 Nordeste 0 939.2 -- 85
2021-01-17 04:00:00 -4 7 Norte 13 Norte 0 939.5 -- 84
2021-01-17 03:00:00 -3.9 3 Este 6 Nordeste 0 939.4 -- 86
2021-01-17 02:00:00 -3.3 6 Nordeste 8 Nordeste 0 939.8 -- 83
2021-01-17 01:00:00 -2.3 5 Este 10 Norte 0 940.2 -- 87
2021-01-17 00:00:00 -1.4 9 Norte 12 Norte 0 940.5 -- 85
2021-01-16 23:00:00 -0.3 3 Sudeste 8 Este 0 940.2 -- 85
2021-01-16 22:00:00 0.3 5 Este 11 Nordeste 0 940 -- 86
2021-01-16 21:00:00 1.4 9 Nordeste 12 Nordeste 0 940 -- 85
2021-01-16 20:00:00 2.3 8 Norte 10 Norte 0 939.7 -- 75
2021-01-16 19:00:00 5.1 5 Nordeste 7 Nordeste 0 939.4 -- 52
2021-01-16 18:00:00 8.8 5 Nordeste 13 Este 0 939.2 -- 42
2021-01-16 17:00:00 12.3 9 Este -- -- 0 938.8 -- 35
2021-01-16 16:00:00 12.1 10 Nordeste 16 Nordeste 0 938.6 -- 42
2021-01-16 15:00:00 11 8 Nordeste 15 Nordeste 0 938.8 -- 52
2021-01-16 14:00:00 8.5 9 Nordeste -- -- 0 939.3 -- 61
2021-01-16 13:00:00 5.8 7 Norte 11 Nordeste 0 940.1 -- 74
2021-01-16 12:00:00 4.4 8 Nordeste 13 Nordeste 0 940.5 -- 83
2021-01-16 11:00:00 0.4 9 Nordeste 13 Nordeste 0 940.1 -- 91
2021-01-16 10:00:00 -2.9 8 Nordeste 13 Nordeste 0 939.5 -- 95
2021-01-16 09:00:00 -5.2 2 Nordeste 9 Nordeste 0 939.3 -- 93
2021-01-16 08:00:00 -4.7 9 Nordeste 17 Nordeste 0 939 -- 94
2021-01-16 07:00:00 -4.5 9 Nordeste 21 Este 0 938.8 -- 95
2021-01-16 06:00:00 -4.3 14 Este 20 Este 0 938.7 -- 96
2021-01-16 05:00:00 -4.1 12 Este 15 Nordeste 0 939 -- 96
2021-01-16 04:00:00 -3.6 9 Este 18 Nordeste 0 939.1 -- 96
2021-01-16 03:00:00 -3.3 12 Nordeste 18 Nordeste 0 939.1 -- 96
2021-01-16 02:00:00 -3 14 Nordeste 18 Nordeste 0 939.1 -- 96
2021-01-16 01:00:00 -2.7 10 Este 18 Este 0 939.3 -- 96
2021-01-16 00:00:00 -3.2 8 Nordeste 15 Nordeste 0 939.5 -- 95
2021-01-15 23:00:00 -2.3 10 Este 19 Nordeste 0 939.4 -- 96
2021-01-15 22:00:00 -2.6 9 Nordeste 18 Nordeste 0 939.5 -- 95
2021-01-15 21:00:00 -2.5 12 Nordeste 19 Nordeste 0 939.2 -- 95
2021-01-15 20:00:00 -1.8 8 Nordeste 12 Nordeste 0 939.2 -- 93
2021-01-15 19:00:00 -0.6 5 Norte 15 Nordeste 0 939.1 -- 88
2021-01-15 18:00:00 2.4 9 Nordeste 17 Nordeste 0 938.6 -- 81
2021-01-15 17:00:00 6 12 Nordeste 22 Nordeste 0 938.4 -- 71
2021-01-15 16:00:00 8.1 15 Nordeste 25 Nordeste 0 938.6 -- 63
2021-01-15 15:00:00 8.6 14 Nordeste 22 Nordeste 0 938.5 -- 60
2021-01-15 14:00:00 7.5 13 Nordeste -- -- 0 938.9 -- 65
2021-01-15 13:00:00 7.4 15 Nordeste 24 Este 0 939.6 -- 65
2021-01-15 12:00:00 5.7 14 Este 23 Este 0 940 -- 71
2021-01-15 11:00:00 3.8 14 Nordeste 20 Nordeste 0 940 -- 81
2021-01-15 10:00:00 0.3 13 Nordeste 20 Nordeste 0 939.2 -- 94
2021-01-15 09:00:00 -3.1 9 Nordeste 15 Nordeste 0 938.6 -- 93
2021-01-15 08:00:00 -3.7 6 Nordeste 8 Nordeste 0 938.8 -- 91
2021-01-15 07:00:00 -3 4 Este 13 Este 0 938.6 -- 91
2021-01-15 06:00:00 -3.1 10 Nordeste 14 Norte 0 938.9 -- 89
2021-01-15 05:00:00 -2.5 9 Nordeste 17 Nordeste 0 938.9 -- 84
2021-01-15 04:00:00 -1.4 10 Nordeste 17 Este 0 939 -- 82
2021-01-15 03:00:00 -1.5 11 Nordeste 22 Este 0 938.5 -- 81
2021-01-15 02:00:00 -1.4 13 Este 19 Este 0 938.6 -- 81
2021-01-15 01:00:00 -2 8 Nordeste 10 Este 0 939 -- 82
2021-01-15 00:00:00 -1.2 5 Este 11 Este 0 939 -- 79
2021-01-14 23:00:00 -0.5 5 Este 11 Este 0 938.9 -- 77
2021-01-14 22:00:00 -0.1 7 Este 10 Este 0 938.9 -- 76
2021-01-14 21:00:00 0.4 5 Nordeste 10 Este 0 938.8 -- 76
2021-01-14 20:00:00 1.2 8 Este 11 Este 0 938.6 -- 71
2021-01-14 19:00:00 3.2 4 Nordeste 12 Norte 0 938.3 -- 62
2021-01-14 18:00:00 6.1 6 Noroeste 12 Norte 0 938.3 -- 54
2021-01-14 17:00:00 9 8 Norte 17 Norte 0 938 -- 46
2021-01-14 16:00:00 10.5 9 Noroeste 14 Noroeste 0 937.7 -- 35
2021-01-14 15:00:00 11.5 6 Noroeste 15 Noroeste 0 937.4 -- 35
2021-01-14 14:00:00 10.2 4 Nordeste 10 Nordeste 0 938 -- 36
2021-01-14 13:00:00 9.4 2 Nordeste 8 Este 0 938.9 -- 35
2021-01-14 12:00:00 6.3 5 Nordeste 8 Norte 0 939.5 -- 44
2021-01-14 11:00:00 4.1 4 Este 6 Este 0 939.3 -- 53
2021-01-14 10:00:00 -2.2 3 Este 6 Nordeste 0 939 -- 83
2021-01-14 09:00:00 -5.6 5 Este 6 Este 0 938.6 -- 84
2021-01-14 08:00:00 -5.4 4 Norte 6 Noroeste 0 938.6 -- 84
2021-01-14 07:00:00 -5.3 0 Calma 5 Este 0 938.5 -- 84
2021-01-14 06:00:00 -5.4 0 Calma 5 Nordeste 0 938.6 -- 81
2021-01-14 05:00:00 -4.5 4 Nordeste 6 Nordeste 0 938.8 -- 81
2021-01-14 04:00:00 -4.7 3 Norte 4 Nordeste 0 939.1 -- 80
2021-01-14 03:00:00 -4.1 0 Calma 5 Noroeste 0 939 -- 79
2021-01-14 02:00:00 -3.4 2 Nordeste 5 Este 0 939.2 -- 78
2021-01-14 01:00:00 -2.9 3 Este 6 Nordeste 0 939.6 -- 76
2021-01-14 00:00:00 -2.3 5 Nordeste 7 Nordeste 0 939.9 -- 77
2021-01-13 23:00:00 -1.6 5 Este 10 Nordeste 0 939.8 -- 77
2021-01-13 22:00:00 -1 7 Este 12 Este 0 939.8 -- 77
2021-01-13 21:00:00 0 8 Nordeste 11 Nordeste 0 939.8 -- 75
2021-01-13 20:00:00 1.4 7 Nordeste 14 Nordeste 0 939.6 -- 70
2021-01-13 19:00:00 3.2 6 Nordeste 13 Nordeste 0 939.2 -- 63
2021-01-13 18:00:00 6.2 11 Noroeste 13 Noroeste 0 939 -- 54
2021-01-13 17:00:00 10 8 Noroeste 12 Norte 0 939 -- 43
2021-01-13 16:00:00 11 6 Nordeste 12 Norte 0 939 -- 32
2021-01-13 15:00:00 11.4 7 Nordeste 12 Norte 0 939 -- 32
2021-01-13 14:00:00 9.8 5 Nordeste 10 Nordeste 0 939.8 -- 37
2021-01-13 13:00:00 8.8 5 Nordeste 14 Nordeste 0 940.6 -- 41
2021-01-13 12:00:00 7 8 Este 11 Nordeste 0 941 -- 51
2021-01-13 11:00:00 3.8 7 Este 13 Este 0 941 -- 62
2021-01-13 10:00:00 -1.9 8 Nordeste 13 Este 0 940.5 -- 79
2021-01-13 09:00:00 -4.5 8 Nordeste 10 Este 0 940.3 -- 79
2021-01-13 08:00:00 -4.4 5 Nordeste 8 Nordeste 0 939.9 -- 80
2021-01-13 07:00:00 -3.7 6 Nordeste 8 Nordeste 0 939.5 -- 81
2021-01-13 06:00:00 -4.9 6 Nordeste 9 Nordeste 0 939.5 -- 85
2021-01-13 05:00:00 -5.6 3 Nordeste 6 Nordeste 0 939.6 -- 85
2021-01-13 04:00:00 -5 3 Sudoeste 7 Sudoeste 0 939.7 -- 84
2021-01-13 03:00:00 -5 4 Nordeste 6 Sur 0 939.5 -- 85
2021-01-13 02:00:00 -4.8 2 Nordeste 6 Este 0 939.9 -- 84
2021-01-13 01:00:00 -3.9 3 Este 6 Nordeste 0 940.3 -- 83
2021-01-13 00:00:00 -3.5 2 Sudoeste 4 Sudoeste 0 940.3 -- 83
2021-01-12 23:00:00 -2.7 3 Sur 5 Sur 0 940.3 -- 81
2021-01-12 22:00:00 -1.5 4 Sur 10 Este 0 940 -- 77
2021-01-12 21:00:00 -0.7 8 Este 11 Nordeste 0 939.9 -- 76
2021-01-12 20:00:00 0.6 6 Nordeste 9 Norte 0 939.6 -- 71
2021-01-12 19:00:00 2.5 6 Norte 12 Norte 0 939.4 -- 64
2021-01-12 18:00:00 5.6 9 Norte 11 Norte 0 938.9 -- 52
2021-01-12 17:00:00 9.1 5 Norte 10 Nordeste 0 938.9 -- 40
2021-01-12 16:00:00 10.4 5 Este 13 Este 0 938.6 -- 38
2021-01-12 15:00:00 9.2 8 Este 16 Este 0 938.6 -- 42
2021-01-12 14:00:00 7.2 12 Nordeste 19 Nordeste 0 939.1 -- 49
2021-01-12 13:00:00 5.2 11 Nordeste 18 Nordeste 0 939.6 -- 57
2021-01-12 12:00:00 3.3 10 Norte 15 Norte 0 940 -- 68
2021-01-12 11:00:00 1.8 7 Este 17 Este 0 939.6 -- 76
2021-01-12 10:00:00 -3.5 12 Este 15 Este 0 939 -- 91
2021-01-12 09:00:00 -6.2 9 Nordeste 13 Nordeste 0 938.8 -- 90
2021-01-12 08:00:00 -6.6 6 Este 12 Nordeste 0 938.2 -- 89
2021-01-12 07:00:00 -6.3 6 Nordeste 13 Nordeste 0 937.9 -- 90
2021-01-12 06:00:00 -6.3 8 Nordeste 11 Nordeste 0 937.5 -- 89
2021-01-12 05:00:00 -6.2 6 Nordeste 10 Nordeste 0 937.5 -- 88
2021-01-12 04:00:00 -5.8 7 Este 11 Este 0 937.8 -- 88
2021-01-12 03:00:00 -5.5 6 Norte 12 Norte 0 937.7 -- 88
2021-01-12 02:00:00 -4.6 4 Nordeste 15 Este 0 937.2 -- 85
2021-01-12 01:00:00 -4.1 10 Nordeste 17 Nordeste 0 937 -- 86
2021-01-12 00:00:00 -3.8 10 Este 20 Este 0 936.7 -- 85
2021-01-11 23:00:00 -3.2 13 Nordeste 22 Este 0 936.5 -- 83
2021-01-11 22:00:00 -2.5 16 Este 21 Este 0 936 -- 82
2021-01-11 21:00:00 -2 9 Nordeste 13 Nordeste 0 935.8 -- 79
2021-01-11 20:00:00 -1.3 6 Este 14 Este 0 935.3 -- 74
2021-01-11 19:00:00 -0.1 9 Este 20 Este 0 934.9 -- 72
2021-01-11 18:00:00 2.2 11 Este 27 Nordeste 0 934.4 -- 63
2021-01-11 17:00:00 5 16 Este 30 Nordeste 0 934.1 -- 52
2021-01-11 16:00:00 5.8 18 Este 34 Este 0 933.8 -- 50
2021-01-11 15:00:00 5.4 23 Nordeste 37 Este 0 933.5 -- 50
2021-01-11 14:00:00 5.3 22 Este 35 Este 0 933.6 -- 51
2021-01-11 13:00:00 4.4 22 Este 39 Este 0 934 -- 54
2021-01-11 12:00:00 3.4 21 Este 39 Este 0 934.2 -- 61
2021-01-11 11:00:00 1.6 17 Este 27 Este 0 933.9 -- 69
2021-01-11 10:00:00 -2.2 6 Nordeste 15 Nordeste 0 933.2 -- 86
2021-01-11 09:00:00 -4.8 10 Nordeste 19 Nordeste 0 932.4 -- 87
2021-01-11 08:00:00 -4.4 12 Nordeste 20 Este 0 931.8 -- 87
2021-01-11 07:00:00 -4.6 13 Nordeste 21 Nordeste 0 931.4 -- 87
2021-01-11 06:00:00 -4.6 13 Nordeste 18 Nordeste 0 931.1 -- 87
2021-01-11 05:00:00 -4.2 12 Nordeste 16 Nordeste 0 931 -- 86
2021-01-11 04:00:00 -3.5 13 Nordeste 19 Nordeste 0 931.1 -- 84
2021-01-11 03:00:00 -3.8 12 Nordeste 17 Nordeste 0 930.8 -- 84
2021-01-11 02:00:00 -2.9 13 Nordeste 21 Nordeste 0 930.3 -- 82
2021-01-11 01:00:00 -2.5 13 Este 26 Este 0 930.2 -- 79
2021-01-11 00:00:00 -2.3 12 Este 27 Nordeste 0 930 -- 79
2021-01-10 23:00:00 -1.8 14 Este 31 Este 0 929.7 -- 76
2021-01-10 22:00:00 -1.3 19 Este 33 Este 0 929.2 -- 75
2021-01-10 21:00:00 -1.4 18 Este 29 Este 0 928.5 -- 77
2021-01-10 20:00:00 -1.1 15 Nordeste 32 Este 0 927.7 -- 76
2021-01-10 19:00:00 0.2 21 Nordeste 33 Nordeste 0 926.9 -- 69
2021-01-10 18:00:00 1.8 13 Nordeste 33 Nordeste 0 926.2 -- 64
2021-01-10 17:00:00 4 22 Nordeste 45 Nordeste 0 925.4 -- 56
2021-01-10 16:00:00 4.9 28 Nordeste 57 Nordeste 0 924.9 -- 55
2021-01-10 15:00:00 4.8 32 Nordeste 47 Nordeste 0 924.4 -- 56
2021-01-10 14:00:00 4.5 23 Nordeste 38 Nordeste 0 924.6 -- 60
2021-01-10 13:00:00 4.1 20 Nordeste 33 Nordeste 0 924.6 -- 64
2021-01-10 12:00:00 2.1 22 Nordeste 35 Nordeste 0 924.6 -- 69
2021-01-10 11:00:00 1.5 19 Nordeste 37 Nordeste 0 924.1 -- 72
2021-01-10 10:00:00 0.7 20 Este 45 Este 0 922.9 -- 76
2021-01-10 09:00:00 0.3 22 Este 43 Nordeste 0 922.1 -- 80
2021-01-10 08:00:00 -0.2 22 Nordeste 38 Nordeste 0 921.9 -- 85
2021-01-10 07:00:00 -0.4 23 Nordeste 44 Nordeste 0 921.1 -- 86
2021-01-10 06:00:00 -0.9 20 Nordeste 33 Este 0 920.6 -- 87
2021-01-10 05:00:00 -1.3 16 Nordeste 35 Nordeste 0 920.4 -- 87
2021-01-10 04:00:00 -1.4 23 Nordeste 39 Nordeste 0 920 -- 86
2021-01-10 03:00:00 -1.7 25 Nordeste 39 Nordeste 0 919.2 -- 87
2021-01-10 02:00:00 -1.5 21 Nordeste 34 Nordeste 0 918.9 -- 88
2021-01-10 01:00:00 -1.3 18 Nordeste 31 Nordeste 0 918.5 -- 89
2021-01-10 00:00:00 -1.4 21 Nordeste 36 Nordeste 0 918 -- 89
2021-01-09 23:00:00 -1.3 21 Nordeste 39 Nordeste 0 917.6 -- 89
2021-01-09 22:00:00 -1.2 25 Nordeste 49 Nordeste 0 916.9 -- 88
2021-01-09 21:00:00 -1 27 Nordeste 49 Nordeste 0.2 916.5 -- 89
2021-01-09 20:00:00 -0.9 34 Nordeste 55 Nordeste 0.4 916.2 -- 90
2021-01-09 19:00:00 -0.9 23 Nordeste 41 Nordeste 0.2 915.9 -- 91
2021-01-09 18:00:00 -0.6 26 Nordeste 46 Nordeste 0 915.7 -- 88
2021-01-09 17:00:00 -0.4 28 Nordeste 53 Nordeste 0.2 915.4 -- 86
2021-01-09 16:00:00 -0.5 33 Nordeste 52 Nordeste 0.2 915 -- 87
2021-01-09 15:00:00 -0.6 32 Nordeste 55 Nordeste 0.2 914.8 -- 87
2021-01-09 14:00:00 -0.6 38 Nordeste 60 Nordeste 0 914.7 -- 82
2021-01-09 13:00:00 -0.4 38 Nordeste 65 Nordeste 0 915.3 -- 73
2021-01-09 12:00:00 -0.5 39 Nordeste 62 Nordeste 0 915.8 -- 75
2021-01-09 11:00:00 -1.1 38 Nordeste 61 Nordeste 0 916 -- 76
2021-01-09 10:00:00 -1.6 34 Nordeste 62 Nordeste 0 915.6 -- 82
2021-01-09 09:00:00 -1.8 36 Nordeste 59 Nordeste 0 915.2 -- 83
2021-01-09 08:00:00 -1.8 35 Nordeste 55 Nordeste 0 914.9 -- 85
2021-01-09 07:00:00 -1.9 34 Nordeste 50 Nordeste 0 915 -- 85
2021-01-09 06:00:00 -2.1 33 Nordeste 53 Nordeste 0 915.1 -- 85
2021-01-09 05:00:00 -2 32 Nordeste 52 Nordeste 0 915.2 -- 83
2021-01-09 04:00:00 -1.7 29 Nordeste 50 Nordeste 0 915.7 -- 78
2021-01-09 03:00:00 -1.5 30 Nordeste 45 Nordeste 0 915.7 -- 74
2021-01-09 02:00:00 -1.3 26 Nordeste 46 Nordeste 0 915.9 -- 74
2021-01-09 01:00:00 -1.2 32 Nordeste 47 Nordeste 0 915.8 -- 73
2021-01-09 00:00:00 -1.1 30 Nordeste 46 Nordeste 0 916.3 -- 72
2021-01-08 23:00:00 -0.9 27 Nordeste 43 Nordeste 0 917 -- 71
2021-01-08 22:00:00 -0.7 30 Nordeste 42 Nordeste 0 917.1 -- 68
2021-01-08 21:00:00 -0.4 28 Nordeste 46 Nordeste 0 917.2 -- 67
2021-01-08 20:00:00 0 25 Nordeste 43 Nordeste 0 917 -- 66
2021-01-08 19:00:00 0 23 Nordeste 39 Nordeste 0 917 -- 66
2021-01-08 18:00:00 0.3 25 Nordeste 40 Nordeste 0 917.2 -- 66
2021-01-08 17:00:00 0.7 27 Nordeste 42 Nordeste 0 917.5 -- 63
2021-01-08 16:00:00 1.3 30 Nordeste 44 Nordeste 0 917.7 -- 62
2021-01-08 15:00:00 0.3 31 Nordeste 44 Nordeste 0 918.3 -- 66
2021-01-08 14:00:00 -0.1 32 Nordeste 44 Nordeste 0 919 -- 70
2021-01-08 13:00:00 -1.7 23 Nordeste 38 Nordeste 0 920.3 -- 77
2021-01-08 12:00:00 -2.1 21 Nordeste 37 Nordeste 0 921.7 -- 78
2021-01-08 11:00:00 -2.7 23 Nordeste 39 Nordeste 0 922.1 -- 81
2021-01-08 10:00:00 -4.3 25 Nordeste 35 Nordeste 0 921.5 -- 86
2021-01-08 09:00:00 -4.8 21 Nordeste 31 Este 0 921.6 -- 88
2021-01-08 08:00:00 -5.2 15 Nordeste 24 Nordeste 0 921.4 -- 89
2021-01-08 07:00:00 -5.3 14 Nordeste 24 Nordeste 0 921.4 -- 88
2021-01-08 06:00:00 -5.1 17 Nordeste 24 Nordeste 0 921.4 -- 88
2021-01-08 05:00:00 -5.1 17 Nordeste 26 Nordeste 0 922 -- 86
2021-01-08 04:00:00 -4.8 18 Nordeste 26 Nordeste 0 922.3 -- 84
2021-01-08 03:00:00 -4.6 15 Nordeste 24 Nordeste 0 922.3 -- 85
2021-01-08 02:00:00 -4.8 13 Nordeste 21 Nordeste 0 922.5 -- 85
2021-01-08 01:00:00 -4 14 Nordeste 22 Nordeste 0 922.6 -- 84
2021-01-08 00:00:00 -3.4 16 Nordeste 23 Nordeste 0 922.8 -- 82
2021-01-07 23:00:00 -3.3 12 Nordeste 19 Nordeste 0 922.9 -- 81
2021-01-07 22:00:00 -2.6 13 Nordeste 21 Nordeste 0 922.7 -- 80
2021-01-07 21:00:00 -2.4 11 Nordeste 18 Nordeste 0 922.7 -- 77
2021-01-07 20:00:00 -1.3 14 Nordeste 21 Nordeste 0 922.7 -- 73
2021-01-07 19:00:00 -0.3 14 Nordeste 19 Nordeste 0 922.3 -- 70
2021-01-07 18:00:00 1.5 13 Nordeste 27 Nordeste 0 922.2 -- 64
2021-01-07 17:00:00 4 16 Nordeste 30 Nordeste 0 922 -- 53
2021-01-07 16:00:00 5.2 18 Nordeste 29 Nordeste 0 921.7 -- 50
2021-01-07 15:00:00 5 19 Nordeste 27 Nordeste 0 921.5 -- 51
2021-01-07 14:00:00 4.3 17 Nordeste 29 Nordeste 0 921.7 -- 54
2021-01-07 13:00:00 3.3 20 Nordeste 29 Nordeste 0 922.2 -- 56
2021-01-07 12:00:00 1.8 17 Nordeste 28 Nordeste 0 922.8 -- 68
2021-01-07 11:00:00 -0.7 18 Nordeste 26 Nordeste 0 922.8 -- 75
2021-01-07 10:00:00 -3.7 16 Nordeste 25 Nordeste 0 922.4 -- 87
2021-01-07 09:00:00 -5 20 Nordeste 26 Nordeste 0 921.9 -- 89
2021-01-07 08:00:00 -4.9 17 Nordeste 22 Nordeste 0 921.4 -- 87
2021-01-07 07:00:00 -4.5 12 Nordeste 19 Nordeste 0 921.3 -- 85
2021-01-07 06:00:00 -3.9 14 Nordeste 21 Nordeste 0 921.1 -- 85
2021-01-07 05:00:00 -4.8 11 Nordeste 23 Nordeste 0 921.3 -- 86
2021-01-07 04:00:00 -4 17 Nordeste 24 Nordeste 0 921.4 -- 84
2021-01-07 03:00:00 -3.6 14 Nordeste 19 Nordeste 0 921.3 -- 82
2021-01-07 02:00:00 -3.6 12 Nordeste 19 Nordeste 0 921.7 -- 82
2021-01-07 01:00:00 -3 14 Nordeste 20 Nordeste 0 921.8 -- 81
2021-01-07 00:00:00 -2.8 13 Nordeste 20 Nordeste 0 922 -- 83
2021-01-06 23:00:00 -2.8 13 Nordeste 19 Nordeste 0 922.4 -- 83
2021-01-06 22:00:00 -2.4 13 Nordeste 19 Nordeste 0 922.6 -- 82
2021-01-06 21:00:00 -2 13 Nordeste 19 Nordeste 0 922.7 -- 81
2021-01-06 20:00:00 -1.5 13 Nordeste 19 Este 0 922.8 -- 75
2021-01-06 19:00:00 -0.1 12 Nordeste 16 Nordeste 0 922.8 -- 68
2021-01-06 18:00:00 2.4 11 Nordeste 24 Este 0 922.3 -- 60
2021-01-06 17:00:00 5.8 14 Este 30 Este 0 922.1 -- 49
2021-01-06 16:00:00 7 17 Este 28 Nordeste 0 922 -- 46
2021-01-06 15:00:00 7 16 Este 28 Este 0 922.1 -- 45
2021-01-06 14:00:00 7 14 Este 25 Este 0 922.6 -- 50
2021-01-06 13:00:00 6.2 13 Este 22 Nordeste 0 923.4 -- 50
2021-01-06 12:00:00 4.9 12 Este 18 Nordeste 0 924 -- 57
2021-01-06 11:00:00 1.9 8 Este 14 Este 0 924.2 -- 72
2021-01-06 10:00:00 -2.2 8 Este 17 Este 0 923.8 -- 86
2021-01-06 09:00:00 -5.2 8 Nordeste 13 Este 0 923 -- 87
2021-01-06 08:00:00 -5.1 6 Este 8 Este 0 923 -- 86
2021-01-06 07:00:00 -4.7 6 Nordeste 9 Este 0 922.4 -- 85
2021-01-06 06:00:00 -5 5 Este 8 Este 0 922.1 -- 85
2021-01-06 05:00:00 -4.8 5 Nordeste 9 Este 0 922 -- 85
2021-01-06 04:00:00 -4.8 6 Este 10 Este 0 922.1 -- 83
2021-01-06 03:00:00 -4.1 5 Este 9 Este 0 922 -- 81
2021-01-06 02:00:00 -4.5 5 Sudeste 8 Sudeste 0 921.9 -- 83
2021-01-06 01:00:00 -3.8 5 Este 9 Este 0 922.1 -- 81
2021-01-06 00:00:00 -3.2 4 Este 9 Este 0 921.8 -- 78
2021-01-05 23:00:00 -2.6 3 Este 9 Este 0 921.9 -- 77
2021-01-05 22:00:00 -2.3 6 Nordeste 9 Este 0 921.9 -- 73
2021-01-05 21:00:00 -1.9 8 Nordeste 10 Nordeste 0 921.9 -- 70
2021-01-05 20:00:00 -0.7 7 Nordeste 9 Nordeste 0 921.8 -- 66
2021-01-05 19:00:00 0.3 5 Nordeste 9 Norte 0 921.4 -- 63
2021-01-05 18:00:00 3.4 4 Nordeste 9 Nordeste 0 921 -- 51
2021-01-05 17:00:00 7 4 Este 10 Nordeste 0 920.8 -- 39
2021-01-05 16:00:00 6.8 6 Nordeste 12 Nordeste 0 920.8 -- 41
2021-01-05 15:00:00 6.9 5 Este 13 Sudeste 0 921.1 -- 43
2021-01-05 14:00:00 6.7 3 Sudeste 14 Nordeste 0 921.6 -- 45
2021-01-05 13:00:00 5.8 6 Este 13 Este 0 922.4 -- 50
2021-01-05 12:00:00 4.5 7 Este 14 Este 0 923.1 -- 60
2021-01-05 11:00:00 1.5 5 Sudeste 11 Sudeste 0 923.3 -- 79
2021-01-05 10:00:00 -2.8 4 Este 8 Este 0 923 -- 95
2021-01-05 09:00:00 -6.1 2 Este 5 Sudeste 0 922.5 -- 92
2021-01-05 08:00:00 -5.8 4 Este 6 Sudeste 0 922.4 -- 93
2021-01-05 07:00:00 -5.7 5 Este 7 Este 0 922 -- 93
2021-01-05 06:00:00 -6.1 5 Nordeste 6 Nordeste 0 922 -- 92
2021-01-05 05:00:00 -6.3 4 Nordeste 5 Nordeste 0 922.4 -- 91
2021-01-05 04:00:00 -5.9 0 Calma 5 Sur 0 922.6 -- 91
2021-01-05 03:00:00 -5.4 0 Calma 5 Nordeste 0 922.5 -- 92
2021-01-05 02:00:00 -5.2 3 Sur 7 Este 0 922.4 -- 91
2021-01-05 01:00:00 -5 2 Este 5 Nordeste 0 922.6 -- 89
2021-01-05 00:00:00 -4.2 2 Sudeste 8 Sur 0 922.5 -- 89
2021-01-04 23:00:00 -3.7 4 Sur 14 Sur 0 922.6 -- 89
2021-01-04 22:00:00 -3.5 2 Norte 9 Noroeste 0 922.2 -- 86
2021-01-04 21:00:00 -2.3 7 Oeste 9 Oeste 0 922 -- 84
2021-01-04 20:00:00 -2.1 5 Oeste 12 Noroeste 0 921.9 -- 82
2021-01-04 19:00:00 -0.5 10 Noroeste -- -- 0 921.8 -- 78
2021-01-04 18:00:00 1.2 9 Noroeste 18 Noroeste 0 921.7 -- 72
2021-01-04 17:00:00 3.3 13 Noroeste 24 Oeste 0 921.5 -- 66
2021-01-04 16:00:00 5.2 16 Noroeste 24 Noroeste 0 921.3 -- 61
2021-01-04 15:00:00 7.7 18 Oeste 26 Oeste 0 921.2 -- 63
2021-01-04 14:00:00 6.9 15 Oeste 27 Oeste 0 921.7 -- 67
2021-01-04 13:00:00 3.4 11 Oeste 17 Oeste 0 922.5 -- 80
2021-01-04 12:00:00 3.7 12 Oeste 18 Oeste 0 923.1 -- 95
2021-01-04 11:00:00 0.9 10 Oeste 15 Sudoeste 0 923.4 -- 96
2021-01-04 10:00:00 -0.1 9 Sudoeste 17 Oeste 0 923.1 -- 96
2021-01-04 09:00:00 -0.7 12 Oeste 21 Oeste 0 922.9 -- 96
2021-01-04 08:00:00 -2 3 Sudoeste 10 Oeste 0 923 -- 96
2021-01-04 07:00:00 -2.9 6 Sudoeste 13 Oeste 0 923 -- 93
2021-01-04 06:00:00 -2.3 12 Oeste 19 Oeste 0 923 -- 93
2021-01-04 05:00:00 -1 5 Oeste 13 Oeste 0 923.4 -- 93
2021-01-04 04:00:00 0.1 10 Oeste 13 Oeste 0 923.8 -- 93
2021-01-04 03:00:00 0.2 9 Oeste 14 Sudoeste 0 923.8 -- 93
2021-01-04 02:00:00 0.5 12 Sudoeste 17 Oeste 0 923.9 -- 92
2021-01-04 01:00:00 0.7 9 Oeste 18 Sudoeste 0 924.2 -- 91
2021-01-04 00:00:00 0.6 14 Sudoeste 24 Sudoeste 0 924.5 -- 90
2021-01-03 23:00:00 -0.2 4 Sur 9 Sur 0 925 -- 88
2021-01-03 22:00:00 -0.9 3 Sur 12 Sudoeste 0 925 -- 88
2021-01-03 21:00:00 -0.7 9 Sudoeste 17 Oeste 0 925.2 -- 87
2021-01-03 20:00:00 0.1 10 Sudoeste 15 Sudoeste 0 925.1 -- 85
2021-01-03 19:00:00 -0.1 9 Oeste 21 Oeste 0 925 -- 79
2021-01-03 18:00:00 2.2 8 Sudoeste -- -- 0 925 -- 72
2021-01-03 17:00:00 5.7 15 Oeste 27 Oeste 0 925.1 -- 66
2021-01-03 16:00:00 4.7 13 Noroeste -- -- 0 925.5 -- 65
2021-01-03 15:00:00 7.7 23 Noroeste 39 Noroeste 0 925.8 -- 57
2021-01-03 14:00:00 6.5 22 Oeste -- -- 0 926.1 -- 66
2021-01-03 13:00:00 4.2 18 Oeste 33 Oeste 0 926.8 -- 78
2021-01-03 12:00:00 1.5 12 Sudoeste 19 Oeste 0 927.7 -- 90
2021-01-03 11:00:00 0 12 Sudoeste 19 Sudoeste 0 927.8 -- 92
2021-01-03 10:00:00 -2.3 10 Sudoeste 15 Sudoeste 0 927.6 -- 94
2021-01-03 09:00:00 -2.5 5 Sur 14 Oeste 0 927.3 -- 95
2021-01-03 08:00:00 -3.4 7 Sudoeste 12 Sudoeste 0 927.3 -- 95
2021-01-03 07:00:00 -4.7 3 Sur 8 Sur 0 927.1 -- 94
2021-01-03 06:00:00 -5.4 2 Sudoeste 6 Sur 0 927 -- 94
2021-01-03 05:00:00 -5.3 4 Sur 6 Sudoeste 0 927.3 -- 92
2021-01-03 04:00:00 -4.8 3 Sur 10 Oeste 0 927.6 -- 92
2021-01-03 03:00:00 -4.9 7 Oeste 9 Oeste 0 927.5 -- 90
2021-01-03 02:00:00 -4 4 Sudoeste 6 Noroeste 0 927.7 -- 90
2021-01-03 01:00:00 -2.8 6 Noroeste 13 Noroeste 0 927.9 -- 90
2021-01-03 00:00:00 -2.4 11 Noroeste 15 Noroeste 0 928.1 -- 89
2021-01-02 23:00:00 -2.2 12 Noroeste 15 Noroeste 0 928.1 -- 89
2021-01-02 22:00:00 -1.9 10 Oeste 13 Noroeste 0 928.2 -- 87
2021-01-02 21:00:00 -1.8 7 Oeste 13 Oeste 0 927.9 -- 84
2021-01-02 20:00:00 -1 10 Oeste 13 Oeste 0 927.5 -- 79
2021-01-02 19:00:00 0.5 8 Noroeste 14 Oeste 0 927.4 -- 73
2021-01-02 18:00:00 2.9 10 Noroeste 17 Oeste 0 927 -- 63
2021-01-02 17:00:00 6.4 12 Noroeste 22 Noroeste 0 926.8 -- 53
2021-01-02 16:00:00 6.1 13 Norte 22 Norte 0 926.4 -- 45
2021-01-02 15:00:00 5.8 9 Norte 22 Norte 0 926.1 -- 53
2021-01-02 14:00:00 5.2 13 Noroeste 22 Norte 0 926.4 -- 55